Regional Weather Roundup
Issued by NWS Lake Charles, LA

Home | Current Version | Previous Version | Text Only | Print | Product List | Glossary On
Versions: 1 2 3 4 5 6 7 8 9 10 11 12 13 14 15 16 17 18 19 20 21 22 23 24 25 26 27 28 29 30 31 32 33 34 35 36 37 38 39 40 41 42 43 44 45 46 47 48 49 50
000
ASUS44 KLCH 051710
RWRLCH
RWRLCH
REGIONAL WEATHER ROUNDUP
NATIONAL WEATHER SERVICE LAKE CHARLES LA
1200 PM CDT TUE MAY 05 2015

Note: "fair" indicates few or no clouds below 12,000 feet with no
significant weather and/or obstructions to visibility.


ACROSS SOUTHEAST TEXAS

CITY           SKY/WX    TMP DP  RH WIND       PRES   REMARKS
BEAUMONT       PTSUNNY   83  67  58 SE18G30   30.09S
BEAUMONT CITY  CLOUDY    79  67  67 SE15G22   30.09F
ORANGE         CLOUDY    80  61  51 SE13G25   30.12S
JASPER         NOT AVBL
$$

ACROSS CENTRAL LOUISIANA

CITY           SKY/WX    TMP DP  RH WIND       PRES   REMARKS
LEESVILLE      PTSUNNY   80  64  58 S13G20    30.12S
FULLERTON      PTSUNNY   81  63  54 VRB6      30.11F
ALEXANDRIA INT PTSUNNY   79  63  57 S15       30.13F
ESLER FIELD    MOSUNNY   83  64  52 SE8       30.16F
DERIDDER         N/A     80  61  51 SE14G21   30.15S
OAKDALE        CLOUDY    80  65  60 SE9G18    30.14F
OPELOUSAS      PTSUNNY   80  65  59 SE16      30.15S
$$

ACROSS SOUTHWEST AND SOUTH CENTRAL LOUISIANA

CITY           SKY/WX    TMP DP  RH WIND       PRES   REMARKS
SULPHUR        PTSUNNY   81  63  53 E14G22    30.13S
LAKE CHARLES   MOSUNNY   82  63  52 SE21G30   30.12S
CHENNAULT INT  NOT AVBL
CAMERON PHI    SUNNY     79  66  65 SE20G25   30.14S
DEQUINCY       PTSUNNY   78  66  67 SE10G20   30.12S
JENNINGS       CLOUDY    79  64  59 SE21G26   30.13F
LAFAYETTE      MOSUNNY   80  65  59 VRB7      30.15S
NEW IBERIA       N/A    N/A N/A N/A MISG      30.15F
ABBEVILLE      PTSUNNY   79  66  63 E14G24    30.15S
PATTERSON      CLOUDY   N/A N/A N/A SE12G21   30.16F
SALT POINT       N/A     79  68  69 SE13      30.13F
$$

SELECTED SITES ACROSS THE REGION

CITY           SKY/WX    TMP DP  RH WIND       PRES   REMARKS
HOUSTON BUSH   PTSUNNY   77  71  82 SE17G23   30.04F
HOUSTON HOBBY  PTSUNNY   81  69  67 SE23G30   30.04S
GALVESTON      MOSUNNY   81  72  74 SE21G28   30.06S
COLLEGE STAT   MOSUNNY   82  65  56 SE22G32   30.01F
CONROE         CLOUDY    73  68  84 SE9       30.06S
HUNTSVILLE     CLOUDY    79  66  64 SE10G24   30.05R
LUFKIN         CLOUDY    81  66  60 SE15G23   30.08F
SHREVEPORT     PTSUNNY   79  61  53 SE15G22   30.11F
MONROE         SUNNY     80  59  48 S13       30.17F
NATCHEZ MS     MOSUNNY   81  61  50 SE13G21   30.19F
BATON ROUGE    PTSUNNY   83  64  52 E12       30.16F
N.O. INTL ARPT MOSUNNY   81  62  52 SE10G25   30.18S
SLIDELL        MOSUNNY   80  65  59 SE12      30.19F
$$

MARINE REPORTS

STATION/POSITION TIME  TEMP    WIND        PRES    VSBY  WAVE
                       AIR SEA DIR/SP/G                  HT/PER
                 (UTC) (F)     (DEG/KT/KT) (MB)    (MI)  (FT/S)
BUOY 30 S HIGH I 1650   76 75  120/ 19/ 21 1017.5R         5/ 5
SEA RIM ST PARK  1700   77     130/ 14/ 19 1019.6R
PORT ARTHUR      1600      73  130/ 12/ 18 1019.3R
SABINE PASS N    1600   76 76  140/ 21/ 26 1019.2R
TEXAS POINT      NOT AVBL
CALCASIEU PASS   1600   77 77  140/ 19/ 24   N/A
LK CHARLES BEACH 1600   77 71              1020.2R
MARSH ISLAND     1600   76     140/ 18/ 21   N/A           0
FRESH WATER LOCK 1600   78 77  120/ 14/ 20 1020.4R
AMERADA PASS     1600   75 70  100/ 12/ 15 1020.9R
$$



USA.gov is the U.S. government's official web portal to all federal, state and local government web resources and services.